Year,Month,Day,Hour,Minute,Value (Times are PST for temperature in C)
2014,07,29,00,00,19.70
2014,07,29,00,01,19.70
2014,07,29,00,02,19.70
2014,07,29,00,03,19.70
2014,07,29,00,04,19.60
2014,07,29,00,05,19.60
2014,07,29,00,06,19.60
2014,07,29,00,07,19.60
2014,07,29,00,08,19.50
2014,07,29,00,09,19.50
2014,07,29,00,10,19.40
2014,07,29,00,11,19.40
2014,07,29,00,12,19.40
2014,07,29,00,13,19.40
2014,07,29,00,14,19.30
2014,07,29,00,15,19.30
2014,07,29,00,16,19.30
2014,07,29,00,17,19.30
2014,07,29,00,18,19.30
2014,07,29,00,19,19.30
2014,07,29,00,20,19.30
2014,07,29,00,21,19.20
2014,07,29,00,22,19.20
2014,07,29,00,23,19.20
2014,07,29,00,24,19.20
2014,07,29,00,25,19.20
2014,07,29,00,26,19.20
2014,07,29,00,27,19.20
2014,07,29,00,28,19.20
2014,07,29,00,29,19.10
2014,07,29,00,30,19.10
2014,07,29,00,31,19.10
2014,07,29,00,32,19.10
2014,07,29,00,33,19.10
2014,07,29,00,34,19.00
2014,07,29,00,35,19.00
2014,07,29,00,36,19.00
2014,07,29,00,37,18.90
2014,07,29,00,38,18.90
2014,07,29,00,39,18.90
2014,07,29,00,40,18.80
2014,07,29,00,41,18.80
2014,07,29,00,42,18.80
2014,07,29,00,43,18.80
2014,07,29,00,44,18.70
2014,07,29,00,45,18.70
2014,07,29,00,46,18.70
2014,07,29,00,47,18.60
2014,07,29,00,48,18.60
2014,07,29,00,49,18.60
2014,07,29,00,50,18.50
2014,07,29,00,51,18.50
2014,07,29,00,52,18.50
2014,07,29,00,53,18.40
2014,07,29,00,54,18.40
2014,07,29,00,55,18.40
2014,07,29,00,56,18.30
2014,07,29,00,57,18.30
2014,07,29,00,58,18.30
2014,07,29,00,59,18.30
2014,07,29,01,00,18.30
2014,07,29,01,01,18.20
2014,07,29,01,02,18.20
2014,07,29,01,03,18.20
2014,07,29,01,04,18.20
2014,07,29,01,05,18.10
2014,07,29,01,06,18.10
2014,07,29,01,07,18.10
2014,07,29,01,08,18.10
2014,07,29,01,09,18.00
2014,07,29,01,10,18.00
2014,07,29,01,11,18.00
2014,07,29,01,12,17.90
2014,07,29,01,13,17.90
2014,07,29,01,14,17.90
2014,07,29,01,15,17.90
2014,07,29,01,16,17.90
2014,07,29,01,17,17.80
2014,07,29,01,18,17.80
2014,07,29,01,19,17.80
2014,07,29,01,20,17.80
2014,07,29,01,21,17.80
2014,07,29,01,22,17.80
2014,07,29,01,23,17.80
2014,07,29,01,24,17.70
2014,07,29,01,25,17.70
2014,07,29,01,26,17.70
2014,07,29,01,27,17.70
2014,07,29,01,28,17.70
2014,07,29,01,29,17.70
2014,07,29,01,30,17.70
2014,07,29,01,31,17.70
2014,07,29,01,32,17.70
2014,07,29,01,33,17.70
2014,07,29,01,34,17.60
2014,07,29,01,35,17.60
2014,07,29,01,36,17.60
2014,07,29,01,37,17.60
2014,07,29,01,38,17.60
2014,07,29,01,39,17.60
2014,07,29,01,40,17.60
2014,07,29,01,41,17.60
2014,07,29,01,42,17.60
2014,07,29,01,43,17.60
2014,07,29,01,44,17.60
2014,07,29,01,45,17.60
2014,07,29,01,46,17.60
2014,07,29,01,47,17.50
2014,07,29,01,48,17.50
2014,07,29,01,49,17.50
2014,07,29,01,50,17.50
2014,07,29,01,51,17.40
2014,07,29,01,52,17.40
2014,07,29,01,53,17.40
2014,07,29,01,54,17.40
2014,07,29,01,55,17.30
2014,07,29,01,56,17.30
2014,07,29,01,57,17.30
2014,07,29,01,58,17.30
2014,07,29,01,59,17.30
2014,07,29,02,00,17.20
2014,07,29,02,01,17.20
2014,07,29,02,02,17.20
2014,07,29,02,03,17.20
2014,07,29,02,04,17.10
2014,07,29,02,05,17.10
2014,07,29,02,06,17.10
2014,07,29,02,07,17.10
2014,07,29,02,08,17.10
2014,07,29,02,09,17.00
2014,07,29,02,10,17.00
2014,07,29,02,11,17.00
2014,07,29,02,12,17.00
2014,07,29,02,13,16.90
2014,07,29,02,14,16.90
2014,07,29,02,15,16.90
2014,07,29,02,16,16.90
2014,07,29,02,17,16.90
2014,07,29,02,18,16.90
2014,07,29,02,19,16.80
2014,07,29,02,20,16.80
2014,07,29,02,21,16.80
2014,07,29,02,22,16.80
2014,07,29,02,23,16.80
2014,07,29,02,24,16.80
2014,07,29,02,25,16.80
2014,07,29,02,26,16.70
2014,07,29,02,27,16.70
2014,07,29,02,28,16.70
2014,07,29,02,29,16.70
2014,07,29,02,30,16.60
2014,07,29,02,31,16.60
2014,07,29,02,32,16.60
2014,07,29,02,33,16.60
2014,07,29,02,34,16.60
2014,07,29,02,35,16.50
2014,07,29,02,36,16.50
2014,07,29,02,37,16.50
2014,07,29,02,38,16.50
2014,07,29,02,39,16.50
2014,07,29,02,40,16.50
2014,07,29,02,41,16.50
2014,07,29,02,42,16.50
2014,07,29,02,43,16.40
2014,07,29,02,44,16.40
2014,07,29,02,45,16.40
2014,07,29,02,46,16.40
2014,07,29,02,47,16.40
2014,07,29,02,48,16.40
2014,07,29,02,49,16.30
2014,07,29,02,50,16.30
2014,07,29,02,51,16.30
2014,07,29,02,52,16.30
2014,07,29,02,53,16.30
2014,07,29,02,54,16.30
2014,07,29,02,55,16.30
2014,07,29,02,56,16.30
2014,07,29,02,57,16.30
2014,07,29,02,58,16.30
2014,07,29,02,59,16.30
2014,07,29,03,00,16.30
2014,07,29,03,01,16.30
2014,07,29,03,02,16.30
2014,07,29,03,03,16.30
2014,07,29,03,04,16.30
2014,07,29,03,05,16.30
2014,07,29,03,06,16.30
2014,07,29,03,07,16.20
2014,07,29,03,08,16.20
2014,07,29,03,09,16.20
2014,07,29,03,10,16.20
2014,07,29,03,11,16.20
2014,07,29,03,12,16.20
2014,07,29,03,13,16.20
2014,07,29,03,14,16.20
2014,07,29,03,15,16.30
2014,07,29,03,16,16.30
2014,07,29,03,17,16.30
2014,07,29,03,18,16.30
2014,07,29,03,19,16.30
2014,07,29,03,20,16.30
2014,07,29,03,21,16.30
2014,07,29,03,22,16.30
2014,07,29,03,23,16.30
2014,07,29,03,24,16.30
2014,07,29,03,25,16.30
2014,07,29,03,26,16.30
2014,07,29,03,27,16.30
2014,07,29,03,28,16.40
2014,07,29,03,29,16.40
2014,07,29,03,30,16.40
2014,07,29,03,31,16.40
2014,07,29,03,32,16.40
2014,07,29,03,33,16.40
2014,07,29,03,34,16.40
2014,07,29,03,35,16.40
2014,07,29,03,36,16.50
2014,07,29,03,37,16.50
2014,07,29,03,38,16.50
2014,07,29,03,39,16.60
2014,07,29,03,40,16.60
2014,07,29,03,41,16.60
2014,07,29,03,42,16.60
2014,07,29,03,43,16.60
2014,07,29,03,44,16.60
2014,07,29,03,45,16.60
2014,07,29,03,46,16.60
2014,07,29,03,47,16.60
2014,07,29,03,48,16.60
2014,07,29,03,49,16.70
2014,07,29,03,50,16.70
2014,07,29,03,51,16.70
2014,07,29,03,52,16.70
2014,07,29,03,53,16.70
2014,07,29,03,54,16.70
2014,07,29,03,55,16.70
2014,07,29,03,56,16.70
2014,07,29,03,57,16.70
2014,07,29,03,58,16.70
2014,07,29,03,59,16.70
2014,07,29,04,00,16.70
2014,07,29,04,01,16.60
2014,07,29,04,02,16.60
2014,07,29,04,03,16.60
2014,07,29,04,04,16.60
2014,07,29,04,05,16.60
2014,07,29,04,06,16.60
2014,07,29,04,07,16.60
2014,07,29,04,08,16.60
2014,07,29,04,09,16.60
2014,07,29,04,10,16.60
2014,07,29,04,11,16.60
2014,07,29,04,12,16.60
2014,07,29,04,13,16.60
2014,07,29,04,14,16.70
2014,07,29,04,15,16.70
2014,07,29,04,16,16.70
2014,07,29,04,17,16.70
2014,07,29,04,18,16.70
2014,07,29,04,19,16.70
2014,07,29,04,20,16.70
2014,07,29,04,21,16.70
2014,07,29,04,22,16.70
2014,07,29,04,23,16.70
2014,07,29,04,24,16.70
2014,07,29,04,25,16.70
2014,07,29,04,26,16.70
2014,07,29,04,27,16.60
2014,07,29,04,28,16.60
2014,07,29,04,29,16.60
2014,07,29,04,30,16.60
2014,07,29,04,31,16.60
2014,07,29,04,32,16.60
2014,07,29,04,33,16.60
2014,07,29,04,34,16.70
2014,07,29,04,35,16.60
2014,07,29,04,36,16.60
2014,07,29,04,37,16.60
2014,07,29,04,38,16.60
2014,07,29,04,39,16.60
2014,07,29,04,40,16.60
2014,07,29,04,41,16.60
2014,07,29,04,42,16.60
2014,07,29,04,43,16.60
2014,07,29,04,44,16.60
2014,07,29,04,45,16.70
2014,07,29,04,46,16.70
2014,07,29,04,47,16.70
2014,07,29,04,48,16.70
2014,07,29,04,49,16.70
2014,07,29,04,50,16.70
2014,07,29,04,51,16.70
2014,07,29,04,52,16.70
2014,07,29,04,53,16.60
2014,07,29,04,54,16.60
2014,07,29,04,55,16.60
2014,07,29,04,56,16.60
2014,07,29,04,57,16.60
2014,07,29,04,58,16.60
2014,07,29,04,59,16.60
2014,07,29,05,00,16.50
2014,07,29,05,01,16.50
2014,07,29,05,02,16.50
2014,07,29,05,03,16.40
2014,07,29,05,04,16.40
2014,07,29,05,05,16.40
2014,07,29,05,06,16.40
2014,07,29,05,07,16.40
2014,07,29,05,08,16.40
2014,07,29,05,09,16.40
2014,07,29,05,10,16.40
2014,07,29,05,11,16.30
2014,07,29,05,12,16.30
2014,07,29,05,13,16.30
2014,07,29,05,14,16.30
2014,07,29,05,15,16.30
2014,07,29,05,16,16.30
2014,07,29,05,17,16.30
2014,07,29,05,18,16.30
2014,07,29,05,19,16.30
2014,07,29,05,20,16.30
2014,07,29,05,21,16.30
2014,07,29,05,22,16.30
2014,07,29,05,23,16.30
2014,07,29,05,24,16.30
2014,07,29,05,25,16.20
2014,07,29,05,26,16.20
2014,07,29,05,27,16.20
2014,07,29,05,28,16.20
2014,07,29,05,29,16.20
2014,07,29,05,30,16.20
2014,07,29,05,31,16.20
2014,07,29,05,32,16.20
2014,07,29,05,33,16.20
2014,07,29,05,34,16.20
2014,07,29,05,35,16.20
2014,07,29,05,36,16.20
2014,07,29,05,37,16.20
2014,07,29,05,38,16.20
2014,07,29,05,39,16.20
2014,07,29,05,40,16.20
2014,07,29,05,41,16.20
2014,07,29,05,42,16.20
2014,07,29,05,43,16.20
2014,07,29,05,44,16.30
2014,07,29,05,45,16.30
2014,07,29,05,46,16.30
2014,07,29,05,47,16.30
2014,07,29,05,48,16.30
2014,07,29,05,49,16.30
2014,07,29,05,50,16.30
2014,07,29,05,51,16.30
2014,07,29,05,52,16.30
2014,07,29,05,53,16.30
2014,07,29,05,54,16.30
2014,07,29,05,55,16.30
2014,07,29,05,56,16.30
2014,07,29,05,57,16.30
2014,07,29,05,58,16.30
2014,07,29,05,59,16.30
2014,07,29,06,00,16.30
2014,07,29,06,01,16.30
2014,07,29,06,02,16.30
2014,07,29,06,03,16.30
2014,07,29,06,04,16.30
2014,07,29,06,05,16.40
2014,07,29,06,06,16.40
2014,07,29,06,07,16.40
2014,07,29,06,08,16.40
2014,07,29,06,09,16.40
2014,07,29,06,10,16.40
2014,07,29,06,11,16.40
2014,07,29,06,12,16.40
2014,07,29,06,13,16.40
2014,07,29,06,14,16.30
2014,07,29,06,15,16.30
2014,07,29,06,16,16.30
2014,07,29,06,17,16.30
2014,07,29,06,18,16.30
2014,07,29,06,19,16.30
2014,07,29,06,20,16.30
2014,07,29,06,21,16.30
2014,07,29,06,22,16.30
2014,07,29,06,23,16.30
2014,07,29,06,24,16.30
2014,07,29,06,25,16.30
2014,07,29,06,26,16.30
2014,07,29,06,27,16.30
2014,07,29,06,28,16.30
2014,07,29,06,29,16.30
2014,07,29,06,30,16.30
2014,07,29,06,31,16.30
2014,07,29,06,32,16.30
2014,07,29,06,33,16.30
2014,07,29,06,34,16.30
2014,07,29,06,35,16.30
2014,07,29,06,36,16.30
2014,07,29,06,37,16.30
2014,07,29,06,38,16.30
2014,07,29,06,39,16.40
2014,07,29,06,40,16.40
2014,07,29,06,41,16.40
2014,07,29,06,42,16.50
2014,07,29,06,43,16.50
2014,07,29,06,44,16.60
2014,07,29,06,45,16.60
2014,07,29,06,46,16.60
2014,07,29,06,47,16.60
2014,07,29,06,48,16.60
2014,07,29,06,49,16.60
2014,07,29,06,50,16.60
2014,07,29,06,51,16.60
2014,07,29,06,52,16.60
2014,07,29,06,53,16.60
2014,07,29,06,54,16.60
2014,07,29,06,55,16.70
2014,07,29,06,56,16.70
2014,07,29,06,57,16.70
2014,07,29,06,58,16.70
2014,07,29,06,59,16.80
2014,07,29,07,00,16.80
2014,07,29,07,01,16.80
2014,07,29,07,02,16.90
2014,07,29,07,03,16.90
2014,07,29,07,04,16.90
2014,07,29,07,05,16.90
2014,07,29,07,06,16.90
2014,07,29,07,07,16.90
2014,07,29,07,08,16.90
2014,07,29,07,09,16.90
2014,07,29,07,10,17.00
2014,07,29,07,11,17.00
2014,07,29,07,12,17.00
2014,07,29,07,13,17.00
2014,07,29,07,14,17.00
2014,07,29,07,15,17.10
2014,07,29,07,16,17.10
2014,07,29,07,17,17.10
2014,07,29,07,18,17.10
2014,07,29,07,19,17.10
2014,07,29,07,20,17.10
2014,07,29,07,21,17.20
2014,07,29,07,22,17.20
2014,07,29,07,23,17.20
2014,07,29,07,24,17.20
2014,07,29,07,25,17.30
2014,07,29,07,26,17.30
2014,07,29,07,27,17.30
2014,07,29,07,28,17.40
2014,07,29,07,29,17.40
2014,07,29,07,30,17.40
2014,07,29,07,31,17.50
2014,07,29,07,32,17.50
2014,07,29,07,33,17.60
2014,07,29,07,34,17.60
2014,07,29,07,35,17.70
2014,07,29,07,36,17.70
2014,07,29,07,37,17.70
2014,07,29,07,38,17.80
2014,07,29,07,39,17.80
2014,07,29,07,40,17.80
2014,07,29,07,41,17.90
2014,07,29,07,42,17.90
2014,07,29,07,43,17.90
2014,07,29,07,44,18.00
2014,07,29,07,45,18.00
2014,07,29,07,46,18.10
2014,07,29,07,47,18.10
2014,07,29,07,48,18.10
2014,07,29,07,49,18.20
2014,07,29,07,50,18.20
2014,07,29,07,51,18.20
2014,07,29,07,52,18.30
2014,07,29,07,53,18.30
2014,07,29,07,54,18.40
2014,07,29,07,55,18.40
2014,07,29,07,56,18.50
2014,07,29,07,57,18.50
2014,07,29,07,58,18.60
2014,07,29,07,59,18.60
2014,07,29,08,00,18.60
2014,07,29,08,01,18.70
2014,07,29,08,02,18.70
2014,07,29,08,03,18.80
2014,07,29,08,04,18.80
2014,07,29,08,05,18.80
2014,07,29,08,06,18.80
2014,07,29,08,07,18.90
2014,07,29,08,08,19.00
2014,07,29,08,09,19.00
2014,07,29,08,10,19.10
2014,07,29,08,11,19.10
2014,07,29,08,12,19.20
2014,07,29,08,13,19.20
2014,07,29,08,14,19.30
2014,07,29,08,15,19.30
2014,07,29,08,16,19.40
2014,07,29,08,17,19.40
2014,07,29,08,18,19.50
2014,07,29,08,19,19.50
2014,07,29,08,20,19.60
2014,07,29,08,21,19.70
2014,07,29,08,22,19.70
2014,07,29,08,23,19.80
2014,07,29,08,24,19.90
2014,07,29,08,25,20.10
2014,07,29,08,26,20.20
2014,07,29,08,27,20.30
2014,07,29,08,28,20.30
2014,07,29,08,29,20.40
2014,07,29,08,30,20.50
2014,07,29,08,31,20.60
2014,07,29,08,32,20.70
2014,07,29,08,33,20.80
2014,07,29,08,34,20.90
2014,07,29,08,35,21.00
2014,07,29,08,36,21.10
2014,07,29,08,37,21.10
2014,07,29,08,38,21.10
2014,07,29,08,39,21.20
2014,07,29,08,40,21.20
2014,07,29,08,41,21.30
2014,07,29,08,42,21.30
2014,07,29,08,43,21.30
2014,07,29,08,44,21.40
2014,07,29,08,45,21.40
2014,07,29,08,46,21.40
2014,07,29,08,47,21.50
2014,07,29,08,48,21.50
2014,07,29,08,49,21.60
2014,07,29,08,50,21.60
2014,07,29,08,51,21.60
2014,07,29,08,52,21.70
2014,07,29,08,53,21.70
2014,07,29,08,54,21.70
2014,07,29,08,55,21.70
2014,07,29,08,56,21.80
2014,07,29,08,57,21.80
2014,07,29,08,58,21.80
2014,07,29,08,59,21.80
2014,07,29,09,00,21.80
2014,07,29,09,01,21.80
2014,07,29,09,02,21.90
2014,07,29,09,03,21.90
2014,07,29,09,04,22.00
2014,07,29,09,05,22.00
2014,07,29,09,06,22.00
2014,07,29,09,07,22.10
2014,07,29,09,08,22.10
2014,07,29,09,09,22.10
2014,07,29,09,10,22.10
2014,07,29,09,11,22.10
2014,07,29,09,12,22.10
2014,07,29,09,13,22.20
2014,07,29,09,14,22.20
2014,07,29,09,15,22.10
2014,07,29,09,16,22.20
2014,07,29,09,17,22.20
2014,07,29,09,18,22.10
2014,07,29,09,19,22.10
2014,07,29,09,20,22.10
2014,07,29,09,21,22.10
2014,07,29,09,22,22.10
2014,07,29,09,23,22.10
2014,07,29,09,24,22.20
2014,07,29,09,25,22.20
2014,07,29,09,26,22.20
2014,07,29,09,27,22.20
2014,07,29,09,28,22.20
2014,07,29,09,29,22.20
2014,07,29,09,30,22.20
2014,07,29,09,31,22.20
2014,07,29,09,32,22.30
2014,07,29,09,33,22.30
2014,07,29,09,34,22.30
2014,07,29,09,35,22.30
2014,07,29,09,36,22.40
2014,07,29,09,37,22.40
2014,07,29,09,38,22.40
2014,07,29,09,39,22.40
2014,07,29,09,40,22.40
2014,07,29,09,41,22.40
2014,07,29,09,42,22.40
2014,07,29,09,43,22.40
2014,07,29,09,44,22.40
2014,07,29,09,45,22.40
2014,07,29,09,46,22.40
2014,07,29,09,47,22.40
2014,07,29,09,48,22.40
2014,07,29,09,49,22.50
2014,07,29,09,50,22.50
2014,07,29,09,51,22.50
2014,07,29,09,52,22.60
2014,07,29,09,53,22.60
2014,07,29,09,54,22.60
2014,07,29,09,55,22.70
2014,07,29,09,56,22.70
2014,07,29,09,57,22.70
2014,07,29,09,58,22.70
2014,07,29,09,59,22.70
2014,07,29,10,00,22.70
2014,07,29,10,01,22.80
2014,07,29,10,02,22.80
2014,07,29,10,03,22.80
2014,07,29,10,04,22.80
2014,07,29,10,05,22.90
2014,07,29,10,06,22.90
2014,07,29,10,07,22.90
2014,07,29,10,08,22.90
2014,07,29,10,09,22.90
2014,07,29,10,10,22.90
2014,07,29,10,11,23.00
2014,07,29,10,12,23.00
2014,07,29,10,13,23.00
2014,07,29,10,14,23.00
2014,07,29,10,15,23.10
2014,07,29,10,16,23.10
2014,07,29,10,17,23.10
2014,07,29,10,18,23.20
2014,07,29,10,19,23.20
2014,07,29,10,20,23.20
2014,07,29,10,21,23.30
2014,07,29,10,22,23.30
2014,07,29,10,23,23.40
2014,07,29,10,24,23.40
2014,07,29,10,25,23.50
2014,07,29,10,26,23.60
2014,07,29,10,27,23.60
2014,07,29,10,28,23.60
2014,07,29,10,29,23.70
2014,07,29,10,30,23.70
2014,07,29,10,31,23.70
2014,07,29,10,32,23.70
2014,07,29,10,33,23.70
2014,07,29,10,34,23.60
2014,07,29,10,35,23.60
2014,07,29,10,36,23.60
2014,07,29,10,37,23.60
2014,07,29,10,38,23.60
2014,07,29,10,39,23.50
2014,07,29,10,40,23.50
2014,07,29,10,41,23.50
2014,07,29,10,42,23.60
2014,07,29,10,43,23.60
2014,07,29,10,44,23.60
2014,07,29,10,45,23.70
2014,07,29,10,46,23.70
2014,07,29,10,47,23.80
2014,07,29,10,48,23.80
2014,07,29,10,49,23.90
2014,07,29,10,50,23.90
2014,07,29,10,51,23.90
2014,07,29,10,52,23.90
2014,07,29,10,53,23.90
2014,07,29,10,54,23.90
2014,07,29,10,55,23.90
2014,07,29,10,56,23.90
2014,07,29,10,57,23.90
2014,07,29,10,58,24.00
2014,07,29,10,59,24.00
2014,07,29,11,00,23.90
2014,07,29,11,01,24.00
2014,07,29,11,02,24.00
2014,07,29,11,03,24.00
2014,07,29,11,04,24.10
2014,07,29,11,05,24.10
2014,07,29,11,06,24.10
2014,07,29,11,07,24.10
2014,07,29,11,08,24.10
2014,07,29,11,09,24.10
2014,07,29,11,10,24.10
2014,07,29,11,11,24.20
2014,07,29,11,12,24.20
2014,07,29,11,13,24.30
2014,07,29,11,14,24.30
2014,07,29,11,15,24.30
2014,07,29,11,16,24.30
2014,07,29,11,17,24.30
2014,07,29,11,18,24.30
2014,07,29,11,19,24.30
2014,07,29,11,20,24.40
2014,07,29,11,21,24.40
2014,07,29,11,22,24.40
2014,07,29,11,23,24.40
2014,07,29,11,24,24.50
2014,07,29,11,25,24.50
2014,07,29,11,26,24.60
2014,07,29,11,27,24.70
2014,07,29,11,28,24.80
2014,07,29,11,29,24.80
2014,07,29,11,30,24.90
2014,07,29,11,31,24.90
2014,07,29,11,32,24.80
2014,07,29,11,33,24.80
2014,07,29,11,34,24.80
2014,07,29,11,35,24.80
2014,07,29,11,36,24.80
2014,07,29,11,37,24.80
2014,07,29,11,38,24.80
2014,07,29,11,39,24.80
2014,07,29,11,40,24.80
2014,07,29,11,41,24.80
2014,07,29,11,42,24.70
2014,07,29,11,43,24.60
2014,07,29,11,44,24.60
2014,07,29,11,45,24.50
2014,07,29,11,46,24.60
2014,07,29,11,47,24.70
2014,07,29,11,48,24.70
2014,07,29,11,49,24.70
2014,07,29,11,50,24.80
2014,07,29,11,51,24.90
2014,07,29,11,52,24.90
2014,07,29,11,53,25.00
2014,07,29,11,54,25.10
2014,07,29,11,55,25.20
2014,07,29,11,56,25.30
2014,07,29,11,57,25.30
2014,07,29,11,58,25.40
2014,07,29,11,59,25.40
2014,07,29,12,00,25.30
2014,07,29,12,01,25.30
2014,07,29,12,02,25.30
2014,07,29,12,03,25.30
2014,07,29,12,04,25.30
2014,07,29,12,05,25.40
2014,07,29,12,06,25.40
2014,07,29,12,07,25.50
2014,07,29,12,08,25.60
2014,07,29,12,09,25.70
2014,07,29,12,10,25.60
2014,07,29,12,11,25.50
2014,07,29,12,12,25.50
2014,07,29,12,13,25.40
2014,07,29,12,14,25.40
2014,07,29,12,15,25.50
2014,07,29,12,16,25.40
2014,07,29,12,17,25.50
2014,07,29,12,18,25.50
2014,07,29,12,19,25.60
2014,07,29,12,20,25.60
2014,07,29,12,21,25.70
2014,07,29,12,22,25.70
2014,07,29,12,23,25.70
2014,07,29,12,24,25.70
2014,07,29,12,25,25.70
2014,07,29,12,26,25.70
2014,07,29,12,27,25.70
2014,07,29,12,28,25.70
2014,07,29,12,29,25.60
2014,07,29,12,30,25.60
2014,07,29,12,31,25.60
2014,07,29,12,32,25.70
2014,07,29,12,33,25.70
2014,07,29,12,34,25.90
2014,07,29,12,35,26.00
2014,07,29,12,36,26.00
2014,07,29,12,37,26.00
2014,07,29,12,38,26.00
2014,07,29,12,39,25.90
2014,07,29,12,40,26.00
2014,07,29,12,41,26.10
2014,07,29,12,42,26.20
2014,07,29,12,43,26.30
2014,07,29,12,44,26.40
2014,07,29,12,45,26.40
2014,07,29,12,46,26.30
2014,07,29,12,47,26.30
2014,07,29,12,48,26.30
2014,07,29,12,49,26.30
2014,07,29,12,50,26.30
2014,07,29,12,51,26.30
2014,07,29,12,52,26.40
2014,07,29,12,53,26.50
2014,07,29,12,54,26.60
2014,07,29,12,55,26.60
2014,07,29,12,56,26.60
2014,07,29,12,57,26.70
2014,07,29,12,58,26.80
2014,07,29,12,59,26.80
2014,07,29,13,00,26.80
2014,07,29,13,01,26.70
2014,07,29,13,02,26.80
2014,07,29,13,03,26.80
2014,07,29,13,04,26.90
2014,07,29,13,05,26.90
2014,07,29,13,06,27.00
2014,07,29,13,07,27.00
2014,07,29,13,08,27.00
2014,07,29,13,09,27.10
2014,07,29,13,10,27.10
2014,07,29,13,11,27.20
2014,07,29,13,12,27.30
2014,07,29,13,13,27.40
2014,07,29,13,14,27.50
2014,07,29,13,15,27.60
2014,07,29,13,16,27.80
2014,07,29,13,17,27.90
2014,07,29,13,18,28.10
2014,07,29,13,19,28.20
2014,07,29,13,20,28.30
2014,07,29,13,21,28.40
2014,07,29,13,22,28.40
2014,07,29,13,23,28.50
2014,07,29,13,24,28.60
2014,07,29,13,25,28.70
2014,07,29,13,26,28.70
2014,07,29,13,27,28.80
2014,07,29,13,28,28.90
2014,07,29,13,29,28.90
2014,07,29,13,30,28.90
2014,07,29,13,31,28.90
2014,07,29,13,32,28.90
2014,07,29,13,33,28.90
2014,07,29,13,34,28.90
2014,07,29,13,35,28.80
2014,07,29,13,36,28.80
2014,07,29,13,37,28.70
2014,07,29,13,38,28.60
2014,07,29,13,39,28.60
2014,07,29,13,40,28.60
2014,07,29,13,41,28.60
2014,07,29,13,42,28.60
2014,07,29,13,43,28.70
2014,07,29,13,44,28.70
2014,07,29,13,45,28.70
2014,07,29,13,46,28.70
2014,07,29,13,47,28.60
2014,07,29,13,48,28.50
2014,07,29,13,49,28.40
2014,07,29,13,50,28.40
2014,07,29,13,51,28.40
2014,07,29,13,52,28.50
2014,07,29,13,53,28.50
2014,07,29,13,54,28.60
2014,07,29,13,55,28.60
2014,07,29,13,56,28.70
2014,07,29,13,57,28.70
2014,07,29,13,58,28.60
2014,07,29,13,59,28.60
2014,07,29,14,00,28.50
2014,07,29,14,01,28.60
2014,07,29,14,02,28.60
2014,07,29,14,03,28.60
2014,07,29,14,04,28.70
2014,07,29,14,05,28.70
2014,07,29,14,06,28.70
2014,07,29,14,07,28.70
2014,07,29,14,08,28.60
2014,07,29,14,09,28.50
2014,07,29,14,10,28.50
2014,07,29,14,11,28.40
2014,07,29,14,12,28.20
2014,07,29,14,13,28.10
2014,07,29,14,14,28.00
2014,07,29,14,15,27.90
2014,07,29,14,16,27.90
2014,07,29,14,17,27.80
2014,07,29,14,18,27.90
2014,07,29,14,19,28.00
2014,07,29,14,20,28.10
2014,07,29,14,21,28.20
2014,07,29,14,22,28.30
2014,07,29,14,23,28.30
2014,07,29,14,24,28.40
2014,07,29,14,25,28.40
2014,07,29,14,26,28.40
2014,07,29,14,27,28.40
2014,07,29,14,28,28.50
2014,07,29,14,29,28.50
2014,07,29,14,30,28.60
2014,07,29,14,31,28.70
2014,07,29,14,32,28.60
2014,07,29,14,33,28.40
2014,07,29,14,34,28.30
2014,07,29,14,35,28.30
2014,07,29,14,36,28.30
2014,07,29,14,37,28.30
2014,07,29,14,38,28.20
2014,07,29,14,39,28.10
2014,07,29,14,40,28.00
2014,07,29,14,41,28.00
2014,07,29,14,42,28.10
2014,07,29,14,43,28.20
2014,07,29,14,44,28.30
2014,07,29,14,45,28.30
2014,07,29,14,46,28.30
2014,07,29,14,47,28.30
2014,07,29,14,48,28.30
2014,07,29,14,49,28.20
2014,07,29,14,50,28.20
2014,07,29,14,51,28.20
2014,07,29,14,52,28.30
2014,07,29,14,53,28.30
2014,07,29,14,54,28.40
2014,07,29,14,55,28.40
2014,07,29,14,56,28.50
2014,07,29,14,57,28.60
2014,07,29,14,58,28.70
2014,07,29,14,59,28.70
2014,07,29,15,00,28.60
2014,07,29,15,01,28.50
2014,07,29,15,02,28.30
2014,07,29,15,03,28.20
2014,07,29,15,04,28.10
2014,07,29,15,05,28.10
2014,07,29,15,06,28.10
2014,07,29,15,07,28.10
2014,07,29,15,08,28.10
2014,07,29,15,09,28.10
2014,07,29,15,10,28.10
2014,07,29,15,11,28.10
2014,07,29,15,12,28.20
2014,07,29,15,13,28.20
2014,07,29,15,14,28.30
2014,07,29,15,15,28.20
2014,07,29,15,16,28.20
2014,07,29,15,17,28.10
2014,07,29,15,18,28.00
2014,07,29,15,19,28.00
2014,07,29,15,20,27.80
2014,07,29,15,21,27.70
2014,07,29,15,22,27.60
2014,07,29,15,23,27.60
2014,07,29,15,24,27.60
2014,07,29,15,25,27.60
2014,07,29,15,26,27.60
2014,07,29,15,27,27.70
2014,07,29,15,28,27.70
2014,07,29,15,29,27.70
2014,07,29,15,30,27.80
2014,07,29,15,31,27.80
2014,07,29,15,32,27.90
2014,07,29,15,33,28.00
2014,07,29,15,34,28.10
2014,07,29,15,35,28.10
2014,07,29,15,36,28.20
2014,07,29,15,37,28.30
2014,07,29,15,38,28.40
2014,07,29,15,39,28.40
2014,07,29,15,40,28.40
2014,07,29,15,41,28.50
2014,07,29,15,42,28.60
2014,07,29,15,43,28.70
2014,07,29,15,44,28.80
2014,07,29,15,45,28.80
2014,07,29,15,46,28.90
2014,07,29,15,47,28.90
2014,07,29,15,48,29.00
2014,07,29,15,49,29.10
2014,07,29,15,50,29.10
2014,07,29,15,51,29.00
2014,07,29,15,52,28.80
2014,07,29,15,53,28.70
2014,07,29,15,54,28.60
2014,07,29,15,55,28.60
2014,07,29,15,56,28.60
2014,07,29,15,57,28.50
2014,07,29,15,58,28.50
2014,07,29,15,59,28.40
2014,07,29,16,00,28.40
2014,07,29,16,01,28.40
2014,07,29,16,02,28.50
2014,07,29,16,03,28.50
2014,07,29,16,04,28.50
2014,07,29,16,05,28.60
2014,07,29,16,06,28.60
2014,07,29,16,07,28.70
2014,07,29,16,08,28.70
2014,07,29,16,09,28.80
2014,07,29,16,10,28.80
2014,07,29,16,11,28.90
2014,07,29,16,12,28.90
2014,07,29,16,13,29.00
2014,07,29,16,14,29.00
2014,07,29,16,15,29.00
2014,07,29,16,16,28.90
2014,07,29,16,17,28.90
2014,07,29,16,18,28.90
2014,07,29,16,19,29.00
2014,07,29,16,20,29.00
2014,07,29,16,21,29.10
2014,07,29,16,22,29.10
2014,07,29,16,23,29.20
2014,07,29,16,24,29.20
2014,07,29,16,25,29.30
2014,07,29,16,26,29.30
2014,07,29,16,27,29.40
2014,07,29,16,28,29.40
2014,07,29,16,29,29.50
2014,07,29,16,30,29.60
2014,07,29,16,31,29.60
2014,07,29,16,32,29.60
2014,07,29,16,33,29.70
2014,07,29,16,34,29.70
2014,07,29,16,35,29.70
2014,07,29,16,36,29.70
2014,07,29,16,37,29.60
2014,07,29,16,38,29.60
2014,07,29,16,39,29.60
2014,07,29,16,40,29.50
2014,07,29,16,41,29.60
2014,07,29,16,42,29.50
2014,07,29,16,43,29.50
2014,07,29,16,44,29.50
2014,07,29,16,45,29.40
2014,07,29,16,46,29.40
2014,07,29,16,47,29.40
2014,07,29,16,48,29.30
2014,07,29,16,49,29.20
2014,07,29,16,50,29.10
2014,07,29,16,51,29.10
2014,07,29,16,52,29.00
2014,07,29,16,53,29.00
2014,07,29,16,54,28.90
2014,07,29,16,55,28.90
2014,07,29,16,56,28.90
2014,07,29,16,57,28.80
2014,07,29,16,58,28.80
2014,07,29,16,59,28.70
2014,07,29,17,00,28.70
2014,07,29,17,01,28.70
2014,07,29,17,02,28.70
2014,07,29,17,03,28.70
2014,07,29,17,04,28.60
2014,07,29,17,05,28.60
2014,07,29,17,06,28.50
2014,07,29,17,07,28.40
2014,07,29,17,08,28.40
2014,07,29,17,09,28.40
2014,07,29,17,10,28.40
2014,07,29,17,11,28.50
2014,07,29,17,12,28.50
2014,07,29,17,13,28.50
2014,07,29,17,14,28.40
2014,07,29,17,15,28.30
2014,07,29,17,16,28.30
2014,07,29,17,17,28.20
2014,07,29,17,18,28.10
2014,07,29,17,19,28.10